This demonstration page uses our WeatherBlox Daily Observations layout. Learn more.

Left ArrowRight Arrow

30.21309, -93.2044

Hourly Observations for November 26, 2022

Temp ( °F °C ) Dew Point ( °F °C ) Humidity (%) Winds ( mph kmh ) Pressure ( in mb ) Visibility ( mi km ) Precip ( " mm )
12:15 am 00:15 Cloudy 60 15.7 58 14.7 94 94 E 9 15 30.02 1017 10 16 0.00 0.00
12:35 am 00:35 Cloudy with Light Rain 60 15.8 59 14.8 94 94 E 14 22 29.99 1016 7 11 0.02 0.51
12:55 am 00:55 Cloudy with Light Rain 60 15.8 59 14.8 94 94 E 14 22 29.98 1015 10 16 0.03 0.76
1:15 am 01:15 Cloudy 61 15.9 59 14.9 94 94 E 10 17 29.98 1015 10 16 0.00 0.00
1:35 am 01:35 Cloudy 61 16 59 15 94 94 ENE 7 11 30.00 1016 10 16 0.00 0.00
1:55 am 01:55 Cloudy with Nearby Thunderstorms 61 16.1 59 15.1 94 94 NNE 3 6 30.00 1016 10 16 0.00 0.00
2:15 am 02:15 Cloudy 61 16 59 15 94 94 NE 8 13 29.99 1016 10 16 0.00 0.00
2:35 am 02:35 Cloudy 61 16 59 15.1 94 94 E 8 13 29.99 1016 10 16 0.00 0.00
2:55 am 02:55 Cloudy 61 16.1 59 15.2 94 94 ENE 3 6 30.00 1016 10 16 0.00 0.00
3:15 am 03:15 Cloudy 61 16.1 59 15.1 94 94 N 5 7 30.00 1016 10 16 0.00 0.00
3:35 am 03:35 Cloudy 61 16 59 15.1 94 94 N 9 15 29.98 1015 10 16 0.00 0.00
3:55 am 03:55 Cloudy 61 16 59 15.1 94 94 NNE 9 15 29.97 1015 7 11 0.00 0.00
4:15 am 04:15 Cloudy with Mist and Fog 61 16.1 59 15.2 94 94 NE 7 11 29.96 1015 4 6 0.00 0.00
4:35 am 04:35 Cloudy with Mist and Fog 61 16.2 60 15.4 95 95 ENE 6 9 29.96 1015 4 6 0.00 0.00
4:55 am 04:55 Cloudy with Mist and Fog 61 16.2 60 15.4 95 95 ENE 8 13 29.97 1015 3 4 0.00 0.00
5:15 am 05:15 Cloudy with Mist and Fog 61 16.2 60 15.4 95 95 ENE 10 17 29.94 1014 3 4 0.00 0.00
5:35 am 05:35 Cloudy with Light Rain 61 16.2 60 15.4 95 95 E 9 15 29.95 1014 3 5 0.00 0.00
6:00 am 06:00 Cloudy with Light Rain 61 16 59 15 94 94 E 13 20 29.93 1014 10 16 0.00 0.00
6:47 am 06:47 Cloudy with Nearby Thunderstorms 61 16 59 15 94 94 ENE 12 19 29.90 1013 10 16 0.00 0.00
7:48 am 07:48 Cloudy with Heavy Rain 61 16 61 16 100 100 E 14 22 29.88 1012 3 4 0.00 0.00
8:48 am 08:48 Cloudy with Light Rain 63 17 61 16 94 94 E 14 22 29.90 1013 5 8 0.00 0.00
9:48 am 09:48 Mostly Cloudy with Rain 63 17 63 17 100 100 E 20 31 29.86 1011 5 8 0.00 0.00
10:46 am 10:46 Mostly Cloudy 66 19 63 17 88 88 E 17 28 29.81 1010 6 10 0.00 0.00
11:53 am 11:53 Mostly Cloudy 64 18 63 17 94 94 SSE 6 9 29.79 1009 4 6 0.00 0.00
12:55 pm 12:55 Cloudy 66 19 64 18 94 94 SSE 13 20 29.76 1008 10 16 0.00 0.00
1:53 pm 13:53 Cloudy 66 19 64 18 94 94 S 13 20 29.75 1007 10 16 0.00 0.00
2:48 pm 14:48 Cloudy 68 20 64 18 88 88 WSW 15 24 29.75 1007 10 16 0.00 0.00
3:50 pm 15:50 Mostly Cloudy 66 19 61 16 83 83 SW 15 24 29.75 1007 10 16 0.00 0.00
4:55 pm 16:55 Sunny 64 18 55 13 73 73 SW 17 28 29.77 1008 10 16 0.00 0.00
5:55 pm 17:55 Clear 63 17 54 12 72 72 SW 17 28 29.79 1009 10 16 0.00 0.00
6:53 pm 18:53 Clear 61 16 52 11 72 72 SW 16 26 29.82 1010 10 16 0.00 0.00
7:50 pm 19:50 Clear 59 15 48 9 67 67 SW 14 22 29.84 1011 10 16 0.00 0.00
8:50 pm 20:50 Clear 57 14 46 8 67 67 WSW 14 22 29.85 1011 10 16 0.00 0.00
9:45 pm 21:45 Clear 55 13 46 8 72 72 WSW 14 22 29.86 1011 10 16 0.00 0.00
10:15 pm 22:15 Clear 55 13 46 7.9 71 71 SW 10 17 29.87 1012 10 16 0.00 0.00
10:35 pm 22:35 Clear 55 13 47 8.3 73 73 SW 10 17 29.87 1012 10 16 0.00 0.00
10:55 pm 22:55 Clear 55 13 46 8 72 72 WSW 12 19 29.88 1012 10 16 0.00 0.00
11:15 pm 23:15 Clear 55 12.9 47 8.2 73 73 WSW 10 17 29.88 1012 10 16 0.00 0.00
11:35 pm 23:35 Clear 55 12.8 47 8.1 73 73 WSW 9 15 29.88 1012 10 16 0.00 0.00
11:55 pm 23:55 Clear 55 12.7 46 7.9 73 73 WSW 10 17 29.89 1012 10 16 0.00 0.00

Powered by AerisWeather